Jersey, United Kingdom

10:39 PM BST on July 25, 2017 (GMT +0100)
Jersey

Weather History for EGJJ - April, 2014

Change the Weather History Date:

Tuesday, April 1, 2014

  Actual Average Record
Temperature  
Mean Temperature 54 °F -  
Max Temperature 66 °F 53 °F 66 °F (2014)
Min Temperature 41 °F 43 °F 32 °F (2013)
Degree Days  
Heating Degree Days 12    
Growing Degree Days 4 (Base 50)    
Moisture  
Dew Point 49 °F    
Average Humidity 77    
Maximum Humidity 100    
Minimum Humidity 56    
Precipitation  
Precipitation 0.00 in - - ()
Sea Level Pressure  
Sea Level Pressure 29.77 in    
Wind  
Wind Speed 10 mph ()    
Max Wind Speed 16 mph    
Max Gust Speed -    
Visibility 9.1 miles    
Events Fog    
Averages and records for this station are not official NWS values.
T = Trace of Precipitation, MM = Missing Value Source: Averaged Metar Reports

Daily Weather History Graph

Daily Weather History Graph

Search for Another Location

Airport or City:

Trip Planner

Search our weather history database for the weather conditions in past years. The results will help you decide how hot, cold, wet, or windy it might be!

Date:

Astronomy

Apr. 01, 2014 Rise Set
Actual Time 6:46 AM BST 7:39 PM BST
Civil Twilight 6:14 AM BST 8:12 PM BST
Nautical Twilight 5:35 AM BST 8:50 PM BST
Astronomical Twilight 4:54 AM BST 9:31 PM BST
Moon 7:30 AM BST (4/1) 9:59 PM BST (4/1)
Length of Visible Light 13h 57m
Length of Day
12h 53m
Waxing Crescent, 4% of the Moon is Illuminated
Apr 1
Waxing Crescent
Apr 7
First Quarter
Apr 15
Full
Apr 22
Last Quarter
Apr 29
New

Hourly Weather History & Observations

Time (BST) Temp. Windchill Dew Point Humidity Pressure Visibility Wind Dir Wind Speed Gust Speed Precip Events Conditions
12:00 AM 45 °F - 43 °F 89% 29.89 in 19 mi ENE 6.9 mph - -   Scattered Clouds
1:00 AM 46 °F - 44 °F 89% 29.88 in 12 mi East 6.9 mph - -   Clear
2:00 AM 47 °F - 45 °F 92% 29.87 in 12 mi East 8.1 mph - -   Clear
3:00 AM 46 °F - 44 °F 90% 29.86 in 12 mi ESE 8.1 mph - -   Clear
3:50 AM 46.4 °F 42.4 °F 44.6 °F 93% 29.83 in - East 8.1 mph - N/A   Clear
4:00 AM 47 °F - 45 °F 88% 29.86 in 12 mi East 8.1 mph - -   Clear
4:20 AM 44.6 °F 40.7 °F 42.8 °F 93% 29.83 in - East 6.9 mph - N/A   Clear
4:50 AM 46.4 °F 42.4 °F 44.6 °F 93% 29.83 in - East 8.1 mph - N/A   Clear
5:00 AM 45 °F - 43 °F 90% 29.85 in 7 mi East 9.2 mph - -   Clear
5:20 AM 44.6 °F 40.2 °F 42.8 °F 93% 29.83 in - East 8.1 mph - N/A   Clear
5:50 AM 44.6 °F 39.7 °F 44.6 °F 100% 29.83 in 6.2 mi East 9.2 mph - N/A   Partly Cloudy
6:00 AM 46 °F - 45 °F 96% 29.83 in 7 mi East 10.4 mph - -   Scattered Clouds
6:20 AM 46.4 °F 41.9 °F 44.6 °F 93% 29.83 in 3.1 mi East 9.2 mph - N/A Fog Fog
6:50 AM 46.4 °F 41.5 °F 44.6 °F 93% 29.83 in 3.7 mi East 10.4 mph - N/A Fog Fog
7:00 AM 46 °F - 45 °F 94% 29.83 in 4 mi East 12.7 mph - - Fog Light Fog
7:20 AM 46.4 °F 41.5 °F 44.6 °F 93% 29.80 in 5.0 mi East 10.4 mph - N/A Fog Fog
7:50 AM 50.0 °F - 46.4 °F 87% 29.83 in - East 11.5 mph - N/A   Clear
8:00 AM 49 °F - 47 °F 89% 29.83 in 7 mi ENE 10.4 mph - -   Clear
8:20 AM 50.0 °F - 48.2 °F 94% 29.83 in - East 13.8 mph - N/A   Clear
8:50 AM 51.8 °F - 50.0 °F 94% 29.80 in - East 13.8 mph - N/A   Clear
9:00 AM 52 °F - 50 °F 89% 29.82 in 7 mi East 11.5 mph - -   Scattered Clouds
9:20 AM 51.8 °F - 50.0 °F 94% 29.80 in - East 12.7 mph - N/A   Clear
9:50 AM 53.6 °F - 50.0 °F 88% 29.80 in - East 13.8 mph - N/A   Clear
10:00 AM 55 °F - 51 °F 81% 29.82 in 9 mi East 13.8 mph - -   Scattered Clouds
10:20 AM 55.4 °F - 51.8 °F 88% 29.80 in - East 13.8 mph - N/A   Clear
10:50 AM 57.2 °F - 51.8 °F 82% 29.80 in - ESE 12.7 mph - N/A   Clear
11:00 AM 58 °F - 51 °F 71% 29.81 in 9 mi ESE 16.1 mph - -   Scattered Clouds
11:20 AM 59.0 °F - 50.0 °F 72% 29.80 in - ESE 12.7 mph - N/A   Clear
11:50 AM 59.0 °F - 50.0 °F 72% 29.80 in - ESE 13.8 mph - N/A   Clear
12:00 PM 59 °F - 49 °F 59% 29.80 in 12 mi ESE 16.1 mph - -   Partly Cloudy
12:20 PM 59.0 °F - 51.8 °F 77% 29.80 in - ESE 12.7 mph - N/A   Clear
12:50 PM 60.8 °F - 51.8 °F 72% 29.77 in - East 12.7 mph - N/A   Clear
1:00 PM 61 °F - 52 °F 64% 29.77 in 12 mi East 15.0 mph - -   Scattered Clouds
1:20 PM 60.8 °F - 51.8 °F 72% 29.74 in 6.2 mi East 13.8 mph - N/A   Partly Cloudy
1:50 PM 62.6 °F - 53.6 °F 72% 29.74 in 6.2 mi East 13.8 mph - N/A   Partly Cloudy
2:00 PM 62 °F - 53 °F 64% 29.75 in 12 mi East 15.0 mph - -   Scattered Clouds
2:20 PM 62.6 °F - 55.4 °F 77% 29.74 in 6.2 mi East 12.7 mph - N/A   Partly Cloudy
2:50 PM 62.6 °F - 53.6 °F 72% 29.71 in 6.2 mi East 15.0 mph - N/A   Partly Cloudy
3:00 PM 63 °F - 54 °F 65% 29.72 in 11 mi East 13.8 mph - -   Scattered Clouds
3:20 PM 64.4 °F - 53.6 °F 68% 29.71 in 6.2 mi ESE 11.5 mph - N/A   Partly Cloudy
3:50 PM 66.2 °F - 53.6 °F 64% 29.71 in - East 12.7 mph - N/A   Clear
4:00 PM 64 °F - 52 °F 56% 29.71 in 12 mi ESE 15.0 mph - -   Scattered Clouds
4:20 PM 64.4 °F - 51.8 °F 64% 29.71 in - ESE 15.0 mph - N/A   Clear
4:50 PM 64.4 °F - 51.8 °F 64% 29.68 in 6.2 mi SE 12.7 mph - N/A   Partly Cloudy
5:00 PM 63 °F - 52 °F 57% 29.70 in 12 mi ESE 12.7 mph - -   Scattered Clouds
5:20 PM 64.4 °F - 51.8 °F 64% 29.68 in 6.2 mi SE 13.8 mph - N/A   Partly Cloudy
5:50 PM 62.6 °F - 51.8 °F 68% 29.68 in - SE 15.0 mph - N/A   Clear
6:00 PM 62 °F - 51 °F 58% 29.69 in 12 mi ESE 13.8 mph - -   Scattered Clouds
6:20 PM 60.8 °F - 50.0 °F 68% 29.68 in - SE 13.8 mph - N/A   Clear
6:50 PM 59.0 °F - 50.0 °F 72% 29.68 in - SE 16.1 mph - N/A   Clear
7:00 PM 58 °F - 50 °F 68% 29.68 in 14 mi ESE 15.0 mph - -   Mostly Cloudy
7:20 PM 59.0 °F - 50.0 °F 72% 29.68 in - SE 15.0 mph - N/A   Clear
7:50 PM 59.0 °F - 50.0 °F 72% 29.68 in - ESE 15.0 mph - N/A   Clear
8:00 PM 59 °F - 50 °F 65% 29.68 in 9 mi ESE 15.0 mph - -   Partly Cloudy
8:20 PM 59.0 °F - 50.0 °F 72% 29.68 in - ESE 13.8 mph - N/A   Clear
8:50 PM 60.8 °F - 50.0 °F 68% 29.68 in - ESE 12.7 mph - N/A   Clear
9:00 PM 61 °F - 50 °F 58% 29.68 in 9 mi ESE 16.1 mph - -   Partly Cloudy
9:20 PM 60.8 °F - 50.0 °F 68% 29.68 in - ESE 12.7 mph - N/A   Clear
10:00 PM 60 °F - 50 °F 61% 29.67 in 12 mi ESE 16.1 mph - -   Scattered Clouds
11:00 PM 60 °F - 49 °F 59% 29.66 in 12 mi ESE 16.1 mph - -   Partly Cloudy